Regional Weather Roundup
Issued by NWS

Home | Current Version | Previous Version | Graphics & Text | Print | Product List | Glossary Off
Versions: 1 2 3 4 5 6 7 8 9 10 11 12 13 14 15 16 17 18 19 20 21 22 23 24 25 26 27 28 29 30 31 32 33 34 35 36 37 38 39 40 41 42 43 44 45 46 47 48 49 50

360
ASUS43 KMKX 192000
RWRWI

WISCONSIN REGIONAL WEATHER ROUNDUP
NATIONAL WEATHER SERVICE MILWAUKEE/SULLIVAN WI
200 PM CST SUN NOV 19 2017

NOTE: "FAIR" INDICATES FEW OR NO CLOUDS BELOW 12,000 FEET WITH NO
SIGNIFICANT WEATHER AND/OR OBSTRUCTIONS TO VISIBILITY.

WIZ001-002-006>008-014>016-023>028-192100-
NORTHWEST WISCONSIN

CITY           SKY/WX    TMP DP  RH WIND       PRES   REMARKS
SUPERIOR ARPT  CLOUDY    25  13  60 W7        29.92F WCI  18
ASHLAND        CLOUDY    25   9  50 SW8       29.92F WCI  16
HAYWARD        CLOUDY    27  10  49 W5        29.91F WCI  22
SIREN          MOSUNNY   31  14  47 SW7       29.93F WCI  25
CUMBERLAND     SUNNY     30  14  51 SW6       29.92F WCI  24
RICE LAKE      MOSUNNY   31  14  50 SW7       29.95F WCI  24
CHETEK         MOSUNNY   29  14  52 SW7       29.95F WCI  22
LADYSMITH      CLOUDY    30  14  50 SW7       29.93F WCI  23
EAU CLAIRE     NOT AVBL
MENOMONIE      PTSUNNY   35  14  43 SW6       29.96F WCI  30
NEW RICHMOND   CLOUDY    33  14  44 SW9       29.94F WCI  25
OSCEOLA        CLOUDY    35  16  45 SW7       29.97F WCI  29
$$

WIZ003>005-009-010-017-018-192100-
NORTH CENTRAL WISCONSIN

CITY           SKY/WX    TMP DP  RH WIND       PRES   REMARKS
MANITOWISH WTR PTSUNNY   21  13  69 W9        29.87F WCI  11
ARBOR VITAE    SUNNY     24  14  66 W7        29.87F WCI  16
WOODRUFF       SUNNY     24  14  66 W7        29.87F WCI  16
RHINELANDER    MOSUNNY  N/A N/A N/A W15       29.88F
EAGLE RIVER    SUNNY     22  10  61 W10G16    29.86F WCI  11
LAND O LAKES   MOSUNNY   23  15  71 W7        29.87F WCI  15
PHILLIPS       CLOUDY    25   9  50 W5        29.89F WCI  19
TOMAHAWK       CLOUDY    26   8  46 W10       29.90F WCI  15
MEDFORD        CLOUDY    27  11  49 W9G16     29.91F WCI  18
MERRILL        PTSUNNY   28   9  43 W10       29.92F WCI  19
$$

WIZ029-030-035-036-043>047-192100-
CENTRAL WISCONSIN

CITY           SKY/WX    TMP DP  RH WIND       PRES   REMARKS
WAUSAU         MOSUNNY   27  10  49 W9        29.92F WCI  18
MOSINEE        MOSUNNY   28  10  47 W12       29.94F WCI  18
MARSHFIELD     PTSUNNY   31  12  45 W13       29.93F WCI  21
STEVENS POINT  SUNNY     27   9  46 W12       29.96F WCI  16
WAUPACA        SUNNY     32   9  38 W14       29.97F WCI  22
WAUTOMA        MOSUNNY   31  12  45 W13       29.98  WCI  21
WISC RAPIDS    SUNNY     32  12  43 NW10G16   29.97F WCI  24
CAMP DOUGLAS   NOT AVBL
$$

WIZ011>013-019>022-031-037>040-048>050-192100-
NORTHEAST WISCONSIN

CITY           SKY/WX    TMP DP  RH WIND       PRES   REMARKS
ANTIGO         MOSUNNY   26  10  50 W10G16    29.90S WCI  17
SHAWANO        MOSUNNY   32   9  37 W9G16     29.94S WCI  24
OCONTO         SUNNY     30   9  41 W9        29.93F WCI  21
STURGEON BAY   NOT AVBL
GREEN BAY      MOSUNNY   31  16  54 W16       29.94F WCI  20
MANITOWOC      SUNNY     31  16  54 W13G21    29.95F WCI  21
APPLETON       MOSUNNY   30   5  34 W13G21    29.94F WCI  20
CLINTONVILLE   SUNNY     30   7  37 W10       29.95S WCI  21
OSHKOSH        SUNNY     31  11  43 W13G20    29.95F WCI  21
$$

WIZ032>034-041-042-053>061-192100-
SOUTHWEST WISCONSIN

CITY           SKY/WX    TMP DP  RH WIND       PRES   REMARKS
LA CROSSE      CLOUDY    36  15  42 SW8       30.01F WCI  30
SPARTA         SUNNY     32  14  48 SW6       30.01F WCI  26
VIROQUA        CLOUDY    31  18  58 W9        29.99F WCI  23
BOSCOBEL       SUNNY     37  15  40 SW8       30.05F WCI  31
PRAIRIE DU CHI SUNNY     35  14  43 W8G16     30.06F WCI  28
PLATTEVILLE    SUNNY     33  18  55 SW10G17   30.05F WCI  25
$$

WIZ056-057-062-063-064-067-068-192100-
SOUTH CENTRAL WISCONSIN

CITY           SKY/WX    TMP DP  RH WIND       PRES   REMARKS
REEDSBURG      SUNNY     32  14  48 W7        29.99F WCI  26
BARABOO/DELLS  SUNNY     32  13  45 W8        29.99F WCI  24
LONE ROCK      CLOUDY    34  16  47 W12       30.03F WCI  25
MINERAL POINT  SUNNY     36  19  51 W12G17    30.02F WCI  27
MADISON        PTSUNNY   32  14  47 W6        30.01F WCI  26
MIDDLETON      SUNNY     35  15  45 W10       30.02S WCI  27
WATERTOWN      SUNNY     30  12  47 W12       29.99F WCI  21
MONROE         SUNNY     32  16  51 W13       30.03S WCI  22
JANESVILLE     PTSUNNY   34  14  44 W13       30.02F WCI  25
$$

WIZ051-052-058>065-066-070>072-192100-
SOUTHEAST WISCONSIN

CITY           SKY/WX    TMP DP  RH WIND       PRES   REMARKS
MILWAUKEE      MOSUNNY   34  12  40 W16G22    29.99F WCI  24
WAUKESHA       SUNNY     30  12  47 W14       29.99F WCI  20
MILWAUKEE/TIMM SUNNY     32   9  37 NW12G20   30.00F WCI  23
RACINE         SUNNY     34  14  43 W10G18    30.01F WCI  26
BURLINGTON     SUNNY     34  19  54 W9G17     30.01F WCI  27
KENOSHA        SUNNY     32  15  49 W14       30.01S WCI  22
FOND DU LAC    SUNNY     31   9  39 W14       29.97F WCI  21
SHEBOYGAN      SUNNY     31  12  45 W15G23    29.95F WCI  20
WEST BEND      SUNNY     32  10  40 W13G18    29.97F WCI  22
JUNEAU         SUNNY     29  11  46 W8        29.99F WCI  21
$$

LSZ147-162-192100-
LAKE SUPERIOR

STATION/POSITION TIME  TEMP    WIND        PRES    WAVE
                       AIR SEA DIR/SP/G            HT/PER
                 (UTC) (F)     (DEG/KT/KT) (MB)    (FT/S)
DEVILS ISLAND    1900   24     250/ 21/ 25 1013.7F
SAXON HARBOR     1930   25     220/  7/ 11 1012.9F
$$

LMZ867-665-643>646-192100-
LAKE MICHIGAN

STATION/POSITION TIME  TEMP    WIND        PRES    WAVE
                       AIR SEA DIR/SP/G            HT/PER
                 (UTC) (F)     (DEG/KT/KT) (MB)    (FT/S)
N MID LAKE BUOY  1850   28 48  280/ 19/ 23 1013.1S   4/ 5
NORTHPORT PIER   1940   27     280/  7/ 14 1012.9S
KEWAUNEE LAKESHO 1930   29     310/ 12/ 16 1013.1F
SHEBOYGAN LAKESH 1900   29     270/ 17/ 22 1015.4F
PORT WASHINGTON  1940   32     310/ 13/ 18 1016.3S
MILWAUKEE LAKESH 1930   31     290/ 10/ 14   N/A
S MID LAKE BUOY  1850   31 49  310/ 17/ 21 1016.5S   5/ 7
KENOSHA   LAKESH 1900   31     290/ 18/ 22 1015.9
$$

TC  - TEMPERATURE IN CELSIUS
VSB - VISIBILITY IN STATUTE MILES
WCI - WIND CHILL INDEX
HX  - HEAT INDEX





USA.gov is the U.S. government's official web portal to all federal, state and local government web resources and services.